Flag for Canada Weather past 2 weeks in North Bay, Ontario, Canada

Now
64 °F

Scattered clouds.


Feels Like: 64 °F
Forecast: 42 / 65 °F
Wind: 14 mph from Southwest

Location: North Bay

Current Time: May 5, 2015 at 4:24:22 PM

Latest Report: May 5, 2015 at 4:00 PM


Visibility: 30 mi

Pressure: 30.28 "Hg

Humidity: 32%

Dew point: 34 °F

Location of North BayLocation

Historic Weather in North Bay — Graph

°F

North Bay temperature yesterday

Maximum temperature yesterday: 64 °F (at 10:00 AM)
Minimum temperature yesterday: 46 °F (at 11:00 PM)
Average temperature yesterday: 57 °F

Past Weeks' High & Low Weather Summary

 TemperatureHumidityPressure
High73 °F (May 3, 5:00 PM)100% (Apr 20, 4:00 PM)30.35 "Hg (Apr 20, 4:00 PM)
Low21 °F (Apr 24, 7:00 AM)28% (May 1, 5:00 PM)29.31 "Hg (Apr 20, 4:47 PM)
Average45 °F72%29.86 "Hg
* Reported Apr 20 3:00 PM — May 5 3:00 PM, North Bay, Weather by CustomWeather, © 2015

Note: Actual official high and low records may vary slightly from our data, if they occured in-between our weather recording intervals... More about our weather records

Advertising

North Bay weather history for previous 24 hours

 ConditionsComfort  
Time TempWeatherWind HumidityBarometerVisibility
3:00 PM
Tue, May 5
63 °FScattered clouds.15 mph37%30.30 "Hg30 mi
2:00 PM61 °FScattered clouds.12 mph48%30.32 "Hg30 mi
1:00 PM61 °FScattered clouds.10 mph48%30.32 "Hg30 mi
12:00 PM59 °FPassing clouds.10 mph48%30.34 "Hg30 mi
11:00 AM55 °FScattered clouds.9 mph59%30.35 "Hg30 mi
10:00 AM54 °FPassing clouds.8 mph58%30.34 "Hg30 mi
9:00 AM52 °FPassing clouds.7 mph67%30.34 "Hg30 mi
8:00 AM48 °FPassing clouds.6 mph76%30.33 "Hg30 mi
7:00 AM37 °FPassing clouds.5 mph100%30.32 "Hg30 mi
6:00 AM36 °FClear.3 mph100%30.30 "Hg9 mi
5:00 AM41 °FClear.6 mph100%30.28 "Hg9 mi
4:00 AM43 °FClear.6 mph100%30.26 "Hg9 mi
3:00 AM36 °FClear.2 mph100%30.24 "Hg9 mi
2:00 AM37 °FClear.No wind100%30.23 "Hg9 mi
1:00 AM41 °FClear.2 mph100%30.22 "Hg9 mi
12:00 AM43 °FClear.2 mph100%30.19 "Hg9 mi
11:00 PM
Mon, May 4
46 °FClear.3 mph93%30.17 "Hg9 mi
10:00 PM52 °FMostly cloudy.3 mph94%30.15 "Hg10 mi
9:00 PM52 °FFog.3 mph100%30.10 "Hg6 mi
8:00 PM54 °FFog.7 mph100%30.07 "Hg1 mi
7:00 PM52 °FFog.6 mph100%30.04 "Hg1 mi
6:00 PM54 °FFog.8 mph100%30.02 "Hg0 mi
4:00 PM54 °FFog.10 mph100%29.98 "Hg0 mi
Weather by CustomWeather, © 2015

See weather overviewHow to use our weather pages